,,,PA_Meas_PMT16A,,PR_Meas_QMR101_102,,RH_Meas_QMH101,,SR_Meas_QMS101,,TA_Meas_QMH101,,GenWind,,GenWind,
date,time,status,PA,status,PR,status,RH,status,SR,status,TA,status,DirAvg,status,SpdAvg,
2013-02-23, 00:00:04,VALID,1009.32,VALID,0,VALID,104,VALID,0,VALID,24.2007,VALID,333,VALID,0,
2013-02-23, 00:01:04,VALID,1009.33,VALID,0,VALID,104,VALID,0,VALID,24.2202,VALID,333,VALID,0,
2013-02-23, 00:02:04,VALID,1009.27,VALID,0,VALID,104,VALID,0,VALID,24.2202,VALID,333,VALID,0.157422,
2013-02-23, 00:03:04,VALID,1009.24,VALID,0,VALID,104,VALID,0,VALID,24.2202,VALID,333,VALID,0.289844,
2013-02-23, 00:04:04,VALID,1009.22,VALID,0,VALID,104,VALID,0,VALID,24.2007,VALID,333,VALID,0.280859,
2013-02-23, 00:05:04,VALID,1009.2,VALID,0,VALID,104,VALID,0,VALID,24.1812,VALID,333,VALID,0.322656,
2013-02-23, 00:06:04,VALID,1009.18,VALID,0,VALID,104,VALID,0,VALID,24.1812,VALID,333,VALID,0.235547,
2013-02-23, 00:07:04,VALID,1009.18,VALID,0,VALID,104,VALID,0,VALID,24.2025,VALID,333,VALID,0.120312,
2013-02-23, 00:08:04,VALID,1009.16,VALID,0,VALID,104,VALID,0,VALID,24.1812,VALID,333,VALID,0.0820313,
2013-02-23, 00:09:04,VALID,1009.16,VALID,0,VALID,104,VALID,0,VALID,24.1812,VALID,333,VALID,0,
2013-02-23, 00:10:04,VALID,1009.18,VALID,0,VALID,104,VALID,0,VALID,24.1617,VALID,333,VALID,0,
2013-02-23, 00:11:04,VALID,1009.16,VALID,0,VALID,104,VALID,0,VALID,24.1422,VALID,333,VALID,0,
2013-02-23, 00:12:04,VALID,1009.19,VALID,0,VALID,104,VALID,0,VALID,24.1227,VALID,333,VALID,0,
2013-02-23, 00:13:04,VALID,1009.18,VALID,0,VALID,104,VALID,0,VALID,24.1032,VALID,333,VALID,0,
2013-02-23, 00:14:04,VALID,1009.17,VALID,0,VALID,104,VALID,0,VALID,24.0837,VALID,333,VALID,0,
2013-02-23, 00:15:04,VALID,1009.16,VALID,0,VALID,104,VALID,0,VALID,24.0837,VALID,333,VALID,0,
2013-02-23, 00:16:04,VALID,1009.14,VALID,0,VALID,104,VALID,0,VALID,24.0643,VALID,333,VALID,0,
2013-02-23, 00:17:04,VALID,1009.15,VALID,0,VALID,104,VALID,0,VALID,24.0643,VALID,333,VALID,0,
2013-02-23, 00:18:04,VALID,1009.12,VALID,0,VALID,104,VALID,0,VALID,24.0837,VALID,333,VALID,0,
2013-02-23, 00:19:04,VALID,1009.1,VALID,0,VALID,104,VALID,0,VALID,24.0837,VALID,333,VALID,0,
2013-02-23, 00:20:04,VALID,1009.07,VALID,0,VALID,104,VALID,0,VALID,24.1032,VALID,333,VALID,0,
2013-02-23, 00:21:04,VALID,1009.08,VALID,0,VALID,104,VALID,0,VALID,24.1032,VALID,333,VALID,0,
2013-02-23, 00:22:04,VALID,1009.07,VALID,0,VALID,104,VALID,0,VALID,24.0837,VALID,333,VALID,0,
2013-02-23, 00:23:04,VALID,1009.08,VALID,0,VALID,104,VALID,0,VALID,24.0837,VALID,333,VALID,0,
2013-02-23, 00:24:04,VALID,1009.06,VALID,0,VALID,104,VALID,0,VALID,24.0429,VALID,333,VALID,0,
2013-02-23, 00:25:04,VALID,1009.01,VALID,0,VALID,104,VALID,0.112112,VALID,24.0856,VALID,333,VALID,0,
2013-02-23, 00:26:04,VALID,1009.01,VALID,0,VALID,104,VALID,0,VALID,24.0253,VALID,333,VALID,0,
2013-02-23, 00:27:04,VALID,1008.99,VALID,0,VALID,104,VALID,0,VALID,24.0448,VALID,333,VALID,0,
2013-02-23, 00:28:04,VALID,1008.99,VALID,0,VALID,104,VALID,0,VALID,24.0466,VALID,333,VALID,0,
2013-02-23, 00:29:04,VALID,1008.96,VALID,0,VALID,104,VALID,0,VALID,24.004,VALID,333,VALID,0,
2013-02-23, 00:30:04,VALID,1008.94,VALID,0,VALID,104,VALID,0,VALID,24.0253,VALID,333,VALID,0,
2013-02-23, 00:31:04,VALID,1008.97,VALID,0,VALID,104,VALID,0,VALID,24.0448,VALID,333,VALID,0,
2013-02-23, 00:32:04,VALID,1008.92,VALID,0,VALID,104,VALID,0,VALID,24.0448,VALID,333,VALID,0,
2013-02-23, 00:33:04,VALID,1008.94,VALID,0,VALID,104,VALID,0,VALID,24.0253,VALID,333,VALID,0,
2013-02-23, 00:34:04,VALID,1008.92,VALID,0,VALID,104,VALID,0,VALID,24.0253,VALID,333,VALID,0,
2013-02-23, 00:35:04,VALID,1008.92,VALID,0,VALID,104,VALID,0,VALID,24.0253,VALID,333,VALID,0,
2013-02-23, 00:36:04,VALID,1008.89,VALID,0,VALID,104,VALID,0,VALID,24.0253,VALID,333,VALID,0,
2013-02-23, 00:37:04,VALID,1008.86,VALID,0,VALID,104,VALID,0,VALID,23.9845,VALID,333,VALID,0,
2013-02-23, 00:38:04,VALID,1008.85,VALID,0,VALID,104,VALID,0.112112,VALID,23.9845,VALID,333,VALID,0.264453,
2013-02-23, 00:39:04,VALID,1008.85,VALID,0,VALID,104,VALID,0,VALID,23.9473,VALID,333,VALID,0.107813,
2013-02-23, 00:40:04,VALID,1008.87,VALID,0,VALID,104,VALID,0,VALID,23.9278,VALID,333,VALID,0.178516,
2013-02-23, 00:41:04,VALID,1008.89,VALID,0,VALID,104,VALID,0,VALID,23.9084,VALID,333,VALID,0,
2013-02-23, 00:42:04,VALID,1008.89,VALID,0,VALID,104,VALID,0,VALID,23.9084,VALID,333,VALID,0.123828,
2013-02-23, 00:43:04,VALID,1008.86,VALID,0,VALID,104,VALID,0,VALID,23.9278,VALID,333,VALID,0.118359,
2013-02-23, 00:44:04,VALID,1008.82,VALID,0,VALID,104,VALID,0,VALID,23.9278,VALID,333,VALID,0,
2013-02-23, 00:45:04,VALID,1008.85,VALID,0,VALID,104,VALID,0,VALID,23.9084,VALID,333,VALID,0.0597656,
2013-02-23, 00:46:04,VALID,1008.81,VALID,0,VALID,104,VALID,0,VALID,23.8871,VALID,332,VALID,0.222266,
2013-02-23, 00:47:04,VALID,1008.85,VALID,0,VALID,104,VALID,0.112112,VALID,23.8481,VALID,333,VALID,0.123438,
2013-02-23, 00:48:04,VALID,1008.8,VALID,0,VALID,104,VALID,0,VALID,23.8499,VALID,333,VALID,0,
2013-02-23, 00:49:04,VALID,1008.77,VALID,0,VALID,104,VALID,0,VALID,23.7896,VALID,333,VALID,0,
2013-02-23, 00:50:04,VALID,1008.76,VALID,0,VALID,104,VALID,0,VALID,23.7701,VALID,333,VALID,0,
2013-02-23, 00:51:04,VALID,1008.79,VALID,0,VALID,104,VALID,0,VALID,23.7507,VALID,333,VALID,0.325,
2013-02-23, 00:52:04,VALID,1008.76,VALID,0,VALID,104,VALID,0,VALID,23.772,VALID,333,VALID,0.26875,
2013-02-23, 00:53:04,VALID,1008.78,VALID,0,VALID,104,VALID,0,VALID,23.772,VALID,333,VALID,0.357031,
2013-02-23, 00:54:04,VALID,1008.78,VALID,0,VALID,104,VALID,0,VALID,23.7525,VALID,333,VALID,0.386719,
2013-02-23, 00:55:04,VALID,1008.76,VALID,0,VALID,104,VALID,0,VALID,23.733,VALID,333,VALID,0.317578,
2013-02-23, 00:56:04,VALID,1008.74,VALID,0,VALID,104,VALID,0,VALID,23.733,VALID,333,VALID,0.174609,
2013-02-23, 00:57:04,VALID,1008.75,VALID,0,VALID,104,VALID,0,VALID,23.7135,VALID,333,VALID,0.127344,
2013-02-23, 00:58:04,VALID,1008.72,VALID,0,VALID,104,VALID,0,VALID,23.6922,VALID,333,VALID,0.225,
2013-02-23, 00:59:04,VALID,1008.72,VALID,0,VALID,104,VALID,0,VALID,23.7135,VALID,333,VALID,0.175781,
2013-02-23, 01:00:04,VALID,1008.76,VALID,0,VALID,104,VALID,0,VALID,23.7135,VALID,333,VALID,0.230859,
2013-02-23, 01:01:04,VALID,1008.73,VALID,0,VALID,104,VALID,0,VALID,23.7135,VALID,333,VALID,0.189844,
2013-02-23, 01:02:04,VALID,1008.74,VALID,0,VALID,104,VALID,0,VALID,23.6727,VALID,333,VALID,0.0550781,
2013-02-23, 01:03:04,VALID,1008.74,VALID,0,VALID,104,VALID,0,VALID,23.6532,VALID,333,VALID,0,
2013-02-23, 01:04:04,VALID,1008.72,VALID,0,VALID,104,VALID,0,VALID,23.6745,VALID,333,VALID,0,
2013-02-23, 01:05:04,VALID,1008.74,VALID,0,VALID,104,VALID,0,VALID,23.6143,VALID,333,VALID,0,
2013-02-23, 01:06:04,VALID,1008.75,VALID,0,VALID,104,VALID,0,VALID,23.6356,VALID,333,VALID,0,
2013-02-23, 01:07:04,VALID,1008.76,VALID,0,VALID,104,VALID,0,VALID,23.6356,VALID,333,VALID,0,
2013-02-23, 01:08:04,VALID,1008.76,VALID,0,VALID,104,VALID,0,VALID,23.6356,VALID,333,VALID,0,
2013-02-23, 01:09:04,VALID,1008.76,VALID,0,VALID,104,VALID,0,VALID,23.6356,VALID,333,VALID,0,
2013-02-23, 01:10:04,VALID,1008.75,VALID,0,VALID,104,VALID,0,VALID,23.6161,VALID,333,VALID,0,
2013-02-23, 01:11:04,VALID,1008.7,VALID,0,VALID,104,VALID,0,VALID,23.6143,VALID,333,VALID,0,
2013-02-23, 01:12:04,VALID,1008.68,VALID,0,VALID,104,VALID,0,VALID,23.6356,VALID,333,VALID,0,
2013-02-23, 01:13:04,VALID,1008.62,VALID,0,VALID,104,VALID,0,VALID,23.6745,VALID,333,VALID,0.212891,
2013-02-23, 01:14:04,VALID,1008.64,VALID,0,VALID,104,VALID,0,VALID,23.655,VALID,333,VALID,0.413281,
2013-02-23, 01:15:04,VALID,1008.64,VALID,0,VALID,104,VALID,0.112112,VALID,23.655,VALID,333,VALID,0.506641,
2013-02-23, 01:16:04,VALID,1008.62,VALID,0,VALID,104,VALID,0,VALID,23.6356,VALID,333,VALID,0.570703,
2013-02-23, 01:17:04,VALID,1008.61,VALID,0,VALID,104,VALID,0,VALID,23.6356,VALID,333,VALID,0.496875,
2013-02-23, 01:18:04,VALID,1008.56,VALID,0,VALID,104,VALID,0,VALID,23.6338,VALID,333,VALID,0.402344,
2013-02-23, 01:19:04,VALID,1008.55,VALID,0,VALID,104,VALID,0,VALID,23.655,VALID,333,VALID,0.248047,
2013-02-23, 01:20:04,VALID,1008.53,VALID,0,VALID,104,VALID,0,VALID,23.655,VALID,333,VALID,0.297266,
2013-02-23, 01:21:04,VALID,1008.5,VALID,0,VALID,104,VALID,0,VALID,23.6356,VALID,333,VALID,0,
2013-02-23, 01:22:04,VALID,1008.49,VALID,0,VALID,104,VALID,0,VALID,23.6356,VALID,333,VALID,0.00429688,
2013-02-23, 01:23:04,VALID,1008.42,VALID,0,VALID,104,VALID,0,VALID,23.6356,VALID,333,VALID,0.0585938,
2013-02-23, 01:24:04,VALID,1008.38,VALID,0,VALID,104,VALID,0,VALID,23.6161,VALID,333,VALID,0,
2013-02-23, 01:25:04,VALID,1008.36,VALID,0,VALID,104,VALID,0,VALID,23.6356,VALID,333,VALID,0,
2013-02-23, 01:26:04,VALID,1008.39,VALID,0,VALID,104,VALID,0,VALID,23.6143,VALID,333,VALID,0.00585938,
2013-02-23, 01:27:04,VALID,1008.36,VALID,0,VALID,104,VALID,0,VALID,23.5948,VALID,333,VALID,0.00273437,
2013-02-23, 01:28:04,VALID,1008.36,VALID,0,VALID,104,VALID,0,VALID,23.6356,VALID,333,VALID,0.0675781,
2013-02-23, 01:29:04,VALID,1008.39,VALID,0,VALID,104,VALID,0,VALID,23.6356,VALID,333,VALID,0,
2013-02-23, 01:30:04,VALID,1008.36,VALID,0,VALID,104,VALID,0,VALID,23.6161,VALID,333,VALID,0,
2013-02-23, 01:31:04,VALID,1008.39,VALID,0,VALID,104,VALID,0,VALID,23.5753,VALID,333,VALID,0,
2013-02-23, 01:32:04,VALID,1008.4,VALID,0,VALID,104,VALID,0,VALID,23.6161,VALID,333,VALID,0,
2013-02-23, 01:33:04,VALID,1008.41,VALID,0,VALID,104,VALID,0,VALID,23.5948,VALID,333,VALID,0,
2013-02-23, 01:34:04,VALID,1008.42,VALID,0,VALID,104,VALID,0,VALID,23.6356,VALID,333,VALID,0,
2013-02-23, 01:35:04,VALID,1008.42,VALID,0,VALID,104,VALID,0,VALID,23.6143,VALID,333,VALID,0,
2013-02-23, 01:36:04,VALID,1008.4,VALID,0,VALID,104,VALID,0,VALID,23.6338,VALID,333,VALID,0,
2013-02-23, 01:37:04,VALID,1008.37,VALID,0,VALID,104,VALID,0,VALID,23.655,VALID,333,VALID,0,
2013-02-23, 01:38:04,VALID,1008.35,VALID,0,VALID,104,VALID,0,VALID,23.6143,VALID,333,VALID,0,
2013-02-23, 01:39:04,VALID,1008.33,VALID,0,VALID,104,VALID,0,VALID,23.6356,VALID,333,VALID,0,
2013-02-23, 01:40:04,VALID,1008.3,VALID,0,VALID,104,VALID,0,VALID,23.6161,VALID,333,VALID,0,
2013-02-23, 01:41:04,VALID,1008.27,VALID,0,VALID,104,VALID,0,VALID,23.6356,VALID,333,VALID,0,
2013-02-23, 01:42:04,VALID,1008.23,VALID,0,VALID,104,VALID,0,VALID,23.6356,VALID,333,VALID,0.151562,
2013-02-23, 01:43:04,VALID,1008.22,VALID,0,VALID,104,VALID,0,VALID,23.6338,VALID,333,VALID,0.323438,
2013-02-23, 01:44:04,VALID,1008.19,VALID,0,VALID,104,VALID,0.112112,VALID,23.655,VALID,333,VALID,0.0175781,
2013-02-23, 01:45:04,VALID,1008.14,VALID,0,VALID,104,VALID,0,VALID,23.655,VALID,333,VALID,0.108203,
2013-02-23, 01:46:04,VALID,1008.13,VALID,0,VALID,104,VALID,0,VALID,23.6143,VALID,333,VALID,0,
2013-02-23, 01:47:04,VALID,1008.12,VALID,0,VALID,104,VALID,0,VALID,23.5948,VALID,333,VALID,0,
2013-02-23, 01:48:04,VALID,1008.11,VALID,0,VALID,104,VALID,0,VALID,23.5753,VALID,333,VALID,0,
2013-02-23, 01:49:04,VALID,1008.1,VALID,0,VALID,104,VALID,0,VALID,23.5558,VALID,333,VALID,0,
2013-02-23, 01:50:04,VALID,1008.08,VALID,0,VALID,104,VALID,0.112112,VALID,23.5363,VALID,333,VALID,0,
2013-02-23, 01:51:04,VALID,1008.07,VALID,0,VALID,104,VALID,0.112112,VALID,23.4974,VALID,333,VALID,0,
2013-02-23, 01:52:04,VALID,1008.07,VALID,0,VALID,104,VALID,0,VALID,23.5381,VALID,333,VALID,0,
2013-02-23, 01:53:04,VALID,1008.06,VALID,0,VALID,104,VALID,0,VALID,23.5186,VALID,333,VALID,0,
2013-02-23, 01:54:04,VALID,1008.04,VALID,0,VALID,104,VALID,0,VALID,23.4974,VALID,333,VALID,0,
2013-02-23, 01:55:04,VALID,1008,VALID,0,VALID,104,VALID,0,VALID,23.5186,VALID,333,VALID,0,
2013-02-23, 01:56:04,VALID,1008,VALID,0,VALID,104,VALID,0,VALID,23.4779,VALID,333,VALID,0,
2013-02-23, 01:57:04,VALID,1007.99,VALID,0,VALID,104,VALID,0,VALID,23.4797,VALID,333,VALID,0,
2013-02-23, 01:58:04,VALID,1008,VALID,0,VALID,104,VALID,0,VALID,23.4797,VALID,333,VALID,0,
2013-02-23, 01:59:04,VALID,1008,VALID,0,VALID,104,VALID,0.112112,VALID,23.4584,VALID,333,VALID,0,
2013-02-23, 02:00:04,VALID,1007.99,VALID,0,VALID,104,VALID,0,VALID,23.4797,VALID,333,VALID,0,
2013-02-23, 02:01:04,VALID,1008,VALID,0,VALID,104,VALID,0,VALID,23.4797,VALID,333,VALID,0,
2013-02-23, 02:02:04,VALID,1007.97,VALID,0,VALID,104,VALID,0,VALID,23.4779,VALID,333,VALID,0,
2013-02-23, 02:03:04,VALID,1007.96,VALID,0,VALID,104,VALID,0,VALID,23.4992,VALID,333,VALID,0,
2013-02-23, 02:04:04,VALID,1007.93,VALID,0,VALID,104,VALID,0,VALID,23.4797,VALID,333,VALID,0,
2013-02-23, 02:05:04,VALID,1007.91,VALID,0,VALID,104,VALID,0,VALID,23.4584,VALID,333,VALID,0,
2013-02-23, 02:06:04,VALID,1007.85,VALID,0,VALID,104,VALID,0.112112,VALID,23.4584,VALID,333,VALID,0,
2013-02-23, 02:07:04,VALID,1007.79,VALID,0,VALID,104,VALID,0,VALID,23.4389,VALID,333,VALID,0.211719,
2013-02-23, 02:08:04,VALID,1007.77,VALID,0,VALID,104,VALID,0,VALID,23.4602,VALID,333,VALID,0.346875,
2013-02-23, 02:09:04,VALID,1007.8,VALID,0,VALID,104,VALID,0,VALID,23.4407,VALID,333,VALID,0.45625,
2013-02-23, 02:10:04,VALID,1007.79,VALID,0,VALID,104,VALID,0,VALID,23.4407,VALID,333,VALID,0.441406,
2013-02-23, 02:11:04,VALID,1007.79,VALID,0,VALID,104,VALID,0.112112,VALID,23.4194,VALID,333,VALID,0.370703,
2013-02-23, 02:12:04,VALID,1007.81,VALID,0,VALID,104,VALID,0,VALID,23.4407,VALID,333,VALID,0.0886719,
2013-02-23, 02:13:04,VALID,1007.84,VALID,0,VALID,104,VALID,0,VALID,23.4194,VALID,333,VALID,0,
2013-02-23, 02:14:04,VALID,1007.81,VALID,0,VALID,104,VALID,0,VALID,23.4407,VALID,333,VALID,0,
2013-02-23, 02:15:04,VALID,1007.81,VALID,0,VALID,104,VALID,0,VALID,23.4194,VALID,333,VALID,0,
2013-02-23, 02:16:04,VALID,1007.78,VALID,0,VALID,104,VALID,0,VALID,23.4194,VALID,333,VALID,0.0765625,
2013-02-23, 02:17:04,VALID,1007.77,VALID,0,VALID,104,VALID,0,VALID,23.4194,VALID,333,VALID,0,
2013-02-23, 02:18:04,VALID,1007.74,VALID,0,VALID,104,VALID,0.112112,VALID,23.4407,VALID,333,VALID,0.226953,
2013-02-23, 02:19:04,VALID,1007.74,VALID,0,VALID,104,VALID,0,VALID,23.4017,VALID,333,VALID,0.232812,
2013-02-23, 02:20:04,VALID,1007.74,VALID,0,VALID,104,VALID,0,VALID,23.3805,VALID,333,VALID,0.145703,
2013-02-23, 02:21:04,VALID,1007.73,VALID,0,VALID,104,VALID,0,VALID,23.4017,VALID,333,VALID,0.161328,
2013-02-23, 02:22:04,VALID,1007.71,VALID,0,VALID,104,VALID,0,VALID,23.4017,VALID,333,VALID,0.214844,
2013-02-23, 02:23:04,VALID,1007.75,VALID,0,VALID,104,VALID,0,VALID,23.3823,VALID,333,VALID,0.310547,
2013-02-23, 02:24:04,VALID,1007.71,VALID,0,VALID,104,VALID,0,VALID,23.3415,VALID,333,VALID,0.342578,
2013-02-23, 02:25:04,VALID,1007.73,VALID,0,VALID,104,VALID,0,VALID,23.3415,VALID,333,VALID,0.269141,
2013-02-23, 02:26:04,VALID,1007.73,VALID,0,VALID,104,VALID,0,VALID,23.3415,VALID,333,VALID,0.356641,
2013-02-23, 02:27:04,VALID,1007.69,VALID,0,VALID,104,VALID,0,VALID,23.3628,VALID,333,VALID,0.220703,
2013-02-23, 02:28:04,VALID,1007.65,VALID,0,VALID,104,VALID,0,VALID,23.322,VALID,333,VALID,0.195703,
2013-02-23, 02:29:04,VALID,1007.63,VALID,0,VALID,104,VALID,0,VALID,23.3238,VALID,333,VALID,0.184375,
2013-02-23, 02:30:04,VALID,1007.62,VALID,0,VALID,104,VALID,0,VALID,23.3026,VALID,333,VALID,0.360938,
2013-02-23, 02:31:04,VALID,1007.59,VALID,0,VALID,104,VALID,0.112112,VALID,23.322,VALID,333,VALID,0.424219,
2013-02-23, 02:32:04,VALID,1007.57,VALID,0,VALID,104,VALID,0,VALID,23.322,VALID,333,VALID,0.241797,
2013-02-23, 02:33:04,VALID,1007.53,VALID,0,VALID,104,VALID,0.112112,VALID,23.2831,VALID,333,VALID,0.576563,
2013-02-23, 02:34:04,VALID,1007.49,VALID,0,VALID,104,VALID,0,VALID,23.3026,VALID,333,VALID,0.0125,
2013-02-23, 02:35:04,VALID,1007.44,VALID,0,VALID,104,VALID,0,VALID,23.3043,VALID,333,VALID,0.199219,
2013-02-23, 02:36:04,VALID,1007.38,VALID,0,VALID,104,VALID,0,VALID,23.2636,VALID,333,VALID,0,
2013-02-23, 02:37:04,VALID,1007.37,VALID,0,VALID,104,VALID,0,VALID,23.2848,VALID,333,VALID,0.0734375,
2013-02-23, 02:38:04,VALID,1007.33,VALID,0,VALID,104,VALID,0,VALID,23.2636,VALID,333,VALID,0.250391,
2013-02-23, 02:39:04,VALID,1007.34,VALID,0,VALID,104,VALID,0,VALID,23.2441,VALID,333,VALID,0,
2013-02-23, 02:40:04,VALID,1007.33,VALID,0,VALID,104,VALID,0,VALID,23.2654,VALID,333,VALID,0,
2013-02-23, 02:41:04,VALID,1007.29,VALID,0,VALID,104,VALID,0,VALID,23.2441,VALID,333,VALID,0,
2013-02-23, 02:42:04,VALID,1007.29,VALID,0,VALID,104,VALID,0,VALID,23.2441,VALID,333,VALID,0.113281,
2013-02-23, 02:43:04,VALID,1007.28,VALID,0,VALID,104,VALID,0,VALID,23.2441,VALID,333,VALID,0.117969,
2013-02-23, 02:44:04,VALID,1007.24,VALID,0,VALID,104,VALID,0.112112,VALID,23.2459,VALID,333,VALID,0.209375,
2013-02-23, 02:45:04,VALID,1007.24,VALID,0,VALID,104,VALID,0,VALID,23.2459,VALID,333,VALID,0.273047,
2013-02-23, 02:46:04,VALID,1007.2,VALID,0,VALID,104,VALID,0,VALID,23.2069,VALID,333,VALID,0.301172,
2013-02-23, 02:47:04,VALID,1007.2,VALID,0,VALID,104,VALID,0.112112,VALID,23.1662,VALID,333,VALID,0.210938,
2013-02-23, 02:48:04,VALID,1007.22,VALID,0,VALID,104,VALID,0.112112,VALID,23.1662,VALID,333,VALID,0.365234,
2013-02-23, 02:49:04,VALID,1007.23,VALID,0,VALID,104,VALID,0.112112,VALID,23.1467,VALID,333,VALID,0.0585938,
2013-02-23, 02:50:04,VALID,1007.2,VALID,0,VALID,104,VALID,0,VALID,23.1485,VALID,333,VALID,0,
2013-02-23, 02:51:04,VALID,1007.19,VALID,0,VALID,104,VALID,0,VALID,23.1679,VALID,333,VALID,0.221875,
2013-02-23, 02:52:04,VALID,1007.18,VALID,0,VALID,104,VALID,0.112112,VALID,23.1679,VALID,333,VALID,0.0566406,
2013-02-23, 02:53:04,VALID,1007.17,VALID,0,VALID,104,VALID,0,VALID,23.1467,VALID,333,VALID,0.0398437,
2013-02-23, 02:54:04,VALID,1007.16,VALID,0,VALID,104,VALID,0,VALID,23.1874,VALID,333,VALID,0,
2013-02-23, 02:55:04,VALID,1007.14,VALID,0,VALID,104,VALID,0.112112,VALID,23.1662,VALID,333,VALID,0,
2013-02-23, 02:56:04,VALID,1007.15,VALID,0,VALID,104,VALID,0.112112,VALID,23.1662,VALID,333,VALID,0,
2013-02-23, 02:57:04,VALID,1007.18,VALID,0,VALID,104,VALID,0.112112,VALID,23.1874,VALID,333,VALID,0.0484375,
2013-02-23, 02:58:04,VALID,1007.16,VALID,0,VALID,104,VALID,0.112112,VALID,23.1874,VALID,333,VALID,0.0589844,
2013-02-23, 02:59:04,VALID,1007.13,VALID,0,VALID,104,VALID,0,VALID,23.1662,VALID,333,VALID,0.173828,
2013-02-23, 03:00:04,VALID,1007.13,VALID,0,VALID,104,VALID,0.112112,VALID,23.1662,VALID,333,VALID,0.216797,
2013-02-23, 03:01:04,VALID,1007.1,VALID,0,VALID,104,VALID,0,VALID,23.1679,VALID,333,VALID,0.0699219,
2013-02-23, 03:02:04,VALID,1007.13,VALID,0,VALID,104,VALID,0.112112,VALID,23.1467,VALID,333,VALID,0.214844,
2013-02-23, 03:03:04,VALID,1007.12,VALID,0,VALID,104,VALID,0,VALID,23.129,VALID,333,VALID,0.00273437,
2013-02-23, 03:04:04,VALID,1007.08,VALID,0,VALID,104,VALID,0,VALID,23.129,VALID,333,VALID,0.125781,
2013-02-23, 03:05:04,VALID,1007.09,VALID,0,VALID,104,VALID,0,VALID,23.1307,VALID,333,VALID,0.110937,
2013-02-23, 03:06:04,VALID,1007.08,VALID,0,VALID,104,VALID,0,VALID,23.1307,VALID,333,VALID,0,
2013-02-23, 03:07:04,VALID,1007.1,VALID,0,VALID,104,VALID,0,VALID,23.1112,VALID,333,VALID,0,
2013-02-23, 03:08:04,VALID,1007.09,VALID,0,VALID,104,VALID,0,VALID,23.1112,VALID,333,VALID,0,
2013-02-23, 03:09:04,VALID,1007.09,VALID,0,VALID,104,VALID,0,VALID,23.1112,VALID,333,VALID,0,
2013-02-23, 03:10:04,VALID,1007.06,VALID,0,VALID,104,VALID,0,VALID,23.1307,VALID,333,VALID,0,
2013-02-23, 03:11:04,VALID,1007.07,VALID,0,VALID,104,VALID,0,VALID,23.1095,VALID,333,VALID,0,
2013-02-23, 03:12:04,VALID,1007.04,VALID,0,VALID,104,VALID,0,VALID,23.1095,VALID,333,VALID,0,
2013-02-23, 03:13:04,VALID,1007.01,VALID,0,VALID,104,VALID,0,VALID,23.1095,VALID,333,VALID,0,
2013-02-23, 03:14:04,VALID,1007,VALID,0,VALID,104,VALID,0,VALID,23.1095,VALID,333,VALID,0,
2013-02-23, 03:15:04,VALID,1006.96,VALID,0,VALID,104,VALID,0,VALID,23.0705,VALID,333,VALID,0.046875,
2013-02-23, 03:16:04,VALID,1006.95,VALID,0,VALID,104,VALID,0,VALID,23.0705,VALID,333,VALID,0.255078,
2013-02-23, 03:17:04,VALID,1006.94,VALID,0,VALID,104,VALID,0,VALID,23.0918,VALID,333,VALID,0,
2013-02-23, 03:18:04,VALID,1006.95,VALID,0,VALID,104,VALID,0,VALID,23.0298,VALID,333,VALID,0,
2013-02-23, 03:19:04,VALID,1006.97,VALID,0,VALID,104,VALID,0,VALID,23.0511,VALID,333,VALID,0,
2013-02-23, 03:20:04,VALID,1006.97,VALID,0,VALID,104,VALID,0,VALID,23.0103,VALID,333,VALID,0,
2013-02-23, 03:21:04,VALID,1006.97,VALID,0,VALID,104,VALID,0.112112,VALID,23.0103,VALID,333,VALID,0,
2013-02-23, 03:22:04,VALID,1006.97,VALID,0,VALID,104,VALID,0,VALID,23.0103,VALID,333,VALID,0,
2013-02-23, 03:23:04,VALID,1006.92,VALID,0,VALID,104,VALID,0,VALID,23.0316,VALID,333,VALID,0,
2013-02-23, 03:24:04,VALID,1006.94,VALID,0,VALID,104,VALID,0.112112,VALID,23.0316,VALID,333,VALID,0,
2013-02-23, 03:25:04,VALID,1006.94,VALID,0,VALID,104,VALID,0,VALID,23.0511,VALID,333,VALID,0.053125,
2013-02-23, 03:26:04,VALID,1006.98,VALID,0,VALID,104,VALID,0.112112,VALID,23.0103,VALID,333,VALID,0,
2013-02-23, 03:27:04,VALID,1007.01,VALID,0,VALID,104,VALID,0,VALID,22.9909,VALID,333,VALID,0,
2013-02-23, 03:28:04,VALID,1006.98,VALID,0,VALID,104,VALID,0,VALID,23.0316,VALID,333,VALID,0,
2013-02-23, 03:29:04,VALID,1007,VALID,0,VALID,104,VALID,0,VALID,23.0705,VALID,333,VALID,0,
2013-02-23, 03:30:04,VALID,1007.02,VALID,0,VALID,104,VALID,0,VALID,23.0493,VALID,333,VALID,0,
2013-02-23, 03:31:04,VALID,1007.03,VALID,0,VALID,104,VALID,0.112112,VALID,23.0493,VALID,333,VALID,0,
2013-02-23, 03:32:04,VALID,1007.05,VALID,0,VALID,104,VALID,0,VALID,23.0705,VALID,333,VALID,0,
2013-02-23, 03:33:04,VALID,1007.05,VALID,0,VALID,104,VALID,0,VALID,23.0511,VALID,333,VALID,0,
2013-02-23, 03:34:04,VALID,1007.04,VALID,0,VALID,104,VALID,0.112112,VALID,23.0298,VALID,333,VALID,0,
2013-02-23, 03:35:04,VALID,1007.08,VALID,0,VALID,104,VALID,0,VALID,23.0493,VALID,333,VALID,0,
2013-02-23, 03:36:04,VALID,1007.07,VALID,0,VALID,104,VALID,0,VALID,23.0511,VALID,333,VALID,0.09375,
2013-02-23, 03:37:04,VALID,1007.11,VALID,0,VALID,104,VALID,0,VALID,22.9909,VALID,333,VALID,0.223828,
2013-02-23, 03:38:04,VALID,1007.12,VALID,0,VALID,104,VALID,0,VALID,22.9926,VALID,333,VALID,0.233203,
2013-02-23, 03:39:04,VALID,1007.1,VALID,0,VALID,104,VALID,0.112112,VALID,22.9714,VALID,333,VALID,0.309375,
2013-02-23, 03:40:04,VALID,1007.05,VALID,0,VALID,104,VALID,0.112112,VALID,22.9519,VALID,333,VALID,0.455859,
2013-02-23, 03:41:04,VALID,1007.01,VALID,0,VALID,104,VALID,0.112112,VALID,22.9519,VALID,333,VALID,0.530078,
2013-02-23, 03:42:04,VALID,1006.99,VALID,0,VALID,104,VALID,0.112112,VALID,22.9731,VALID,333,VALID,0.561328,
2013-02-23, 03:43:04,VALID,1007.04,VALID,0,VALID,104,VALID,0,VALID,22.9536,VALID,333,VALID,0.494922,
2013-02-23, 03:44:04,VALID,1007.02,VALID,0,VALID,104,VALID,0,VALID,22.9519,VALID,333,VALID,0.415234,
2013-02-23, 03:45:04,VALID,1007.05,VALID,0,VALID,104,VALID,0.112112,VALID,22.9324,VALID,333,VALID,0.345703,
2013-02-23, 03:46:04,VALID,1007.04,VALID,0,VALID,104,VALID,0.112112,VALID,22.9324,VALID,333,VALID,0.223828,
2013-02-23, 03:47:04,VALID,1007.05,VALID,0,VALID,104,VALID,0,VALID,22.9129,VALID,334,VALID,0.234375,
2013-02-23, 03:48:04,VALID,1007.05,VALID,0,VALID,104,VALID,0.112112,VALID,22.9129,VALID,333,VALID,0.0347656,
2013-02-23, 03:49:04,VALID,1007.07,VALID,0,VALID,104,VALID,0.112112,VALID,22.9147,VALID,333,VALID,0.0015625,
2013-02-23, 03:50:04,VALID,1007.1,VALID,0,VALID,104,VALID,0.112112,VALID,22.8935,VALID,333,VALID,0.18125,
2013-02-23, 03:51:04,VALID,1007.09,VALID,0,VALID,104,VALID,0,VALID,22.9129,VALID,333,VALID,0.207422,
2013-02-23, 03:52:04,VALID,1007.11,VALID,0,VALID,104,VALID,0,VALID,22.9342,VALID,333,VALID,0,
2013-02-23, 03:53:04,VALID,1007.11,VALID,0,VALID,104,VALID,0,VALID,22.9536,VALID,333,VALID,0,
2013-02-23, 03:54:04,VALID,1007.14,VALID,0,VALID,104,VALID,0.112112,VALID,22.9129,VALID,333,VALID,0,
2013-02-23, 03:55:04,VALID,1007.19,VALID,0,VALID,104,VALID,0.112112,VALID,22.8935,VALID,333,VALID,0,
2013-02-23, 03:56:04,VALID,1007.23,VALID,0,VALID,104,VALID,0.112112,VALID,22.8935,VALID,333,VALID,0,
2013-02-23, 03:57:04,VALID,1007.23,VALID,0,VALID,104,VALID,0,VALID,22.874,VALID,333,VALID,0,
2013-02-23, 03:58:04,VALID,1007.21,VALID,0,VALID,104,VALID,0.112112,VALID,22.8935,VALID,333,VALID,0,